DENPM EDDK-EDDF

Flight info

Callsign DENPM
Flight time 0h 47m
Altitude 3500
Route EDDKS XEDEE ED07 EDDFN
Aircraft DR40/L-SGY/S

Departure

Time 2026-04-15 15:48
Airport Cologne Bonn Airport (EDDK)

Arrival

Time 2026-04-15 16:36
Airport Frankfurt Main Airport (EDDF)
Time Latitude Longitude Altitude Speed Heading
2026-04-15 15:37 50.87272 7.12514 231 ft 0 kts 318°
2026-04-15 15:44 50.87273 7.12512 231 ft 1 kts 314°
2026-04-15 15:44 50.87268 7.12485 231 ft 5 kts 225°
2026-04-15 15:45 50.87236 7.12429 230 ft 8 kts 232°
2026-04-15 15:45 50.87188 7.12342 228 ft 12 kts 235°
2026-04-15 15:45 50.87139 7.12219 225 ft 10 kts 233°
2026-04-15 15:45 50.87132 7.12205 225 ft 0 kts 226°
2026-04-15 15:47 50.87074 7.12142 224 ft 13 kts 183°
2026-04-15 15:47 50.87004 7.12207 225 ft 11 kts 133°
2026-04-15 15:47 50.86929 7.12319 227 ft 32 kts 136°
2026-04-15 15:47 50.86633 7.12747 289 ft 72 kts 139°
2026-04-15 15:48 50.86242 7.13321 494 ft 80 kts 148°
2026-04-15 15:48 50.85741 7.13795 682 ft 87 kts 160°
2026-04-15 15:48 50.85146 7.14016 894 ft 88 kts 174°
2026-04-15 15:48 50.84545 7.13654 1076 ft 95 kts 202°
2026-04-15 15:49 50.83962 7.13192 1298 ft 94 kts 201°
2026-04-15 15:49 50.83353 7.12813 1485 ft 96 kts 197°
2026-04-15 15:49 50.82739 7.12366 1668 ft 97 kts 202°
2026-04-15 15:49 50.82136 7.11883 1857 ft 98 kts 203°
2026-04-15 15:50 50.81516 7.11381 1991 ft 104 kts 203°
2026-04-15 15:50 50.80844 7.10835 2007 ft 113 kts 204°
2026-04-15 15:50 50.80122 7.10234 2001 ft 118 kts 204°
2026-04-15 15:50 50.79387 7.09613 2000 ft 121 kts 204°
2026-04-15 15:51 50.78645 7.08991 1999 ft 121 kts 204°
2026-04-15 15:51 50.77886 7.08356 1999 ft 121 kts 205°
2026-04-15 15:51 50.77107 7.07920 2004 ft 120 kts 175°
2026-04-15 15:51 50.76320 7.08356 2005 ft 121 kts 152°
2026-04-15 15:52 50.75566 7.08964 1998 ft 121 kts 150°
2026-04-15 15:52 50.74820 7.09601 1997 ft 122 kts 151°
2026-04-15 15:52 50.74115 7.10199 2199 ft 109 kts 151°
2026-04-15 15:52 50.73484 7.10747 2423 ft 101 kts 149°
2026-04-15 15:53 50.72871 7.11285 2621 ft 99 kts 149°
2026-04-15 15:53 50.72265 7.11823 2802 ft 100 kts 149°
2026-04-15 15:53 50.71666 7.12350 2985 ft 100 kts 150°
2026-04-15 15:53 50.71051 7.12894 3174 ft 100 kts 150°
2026-04-15 15:54 50.70444 7.13431 3360 ft 100 kts 150°
2026-04-15 15:54 50.69830 7.13976 3490 ft 105 kts 150°
2026-04-15 15:54 50.69163 7.14564 3504 ft 115 kts 150°
2026-04-15 15:54 50.68447 7.15191 3501 ft 120 kts 150°
2026-04-15 15:55 50.67705 7.15838 3499 ft 123 kts 150°
2026-04-15 15:55 50.66954 7.16491 3498 ft 123 kts 151°
2026-04-15 15:55 50.66192 7.17148 3497 ft 124 kts 151°
2026-04-15 15:55 50.65433 7.17804 3498 ft 124 kts 151°
2026-04-15 15:56 50.64670 7.18463 3497 ft 124 kts 151°
2026-04-15 15:56 50.63913 7.19123 3497 ft 124 kts 150°
2026-04-15 15:56 50.63161 7.19782 3497 ft 124 kts 150°
2026-04-15 15:56 50.62406 7.20444 3497 ft 124 kts 150°
2026-04-15 15:57 50.61653 7.21106 3497 ft 124 kts 150°
2026-04-15 15:57 50.60899 7.21769 3497 ft 124 kts 150°
2026-04-15 15:57 50.60157 7.22423 3497 ft 123 kts 150°
2026-04-15 15:57 50.59405 7.23084 3497 ft 123 kts 150°
2026-04-15 15:58 50.58653 7.23747 3497 ft 123 kts 150°
2026-04-15 15:58 50.57906 7.24403 3497 ft 124 kts 150°
2026-04-15 15:58 50.57152 7.25065 3497 ft 124 kts 150°
2026-04-15 15:58 50.56395 7.25730 3495 ft 124 kts 150°
2026-04-15 15:59 50.55638 7.26392 3493 ft 124 kts 150°
2026-04-15 15:59 50.54883 7.27055 3492 ft 125 kts 150°
2026-04-15 15:59 50.54121 7.27724 3490 ft 125 kts 150°
2026-04-15 15:59 50.53362 7.28390 3488 ft 124 kts 150°
2026-04-15 16:00 50.52602 7.29056 3489 ft 124 kts 150°
2026-04-15 16:00 50.51853 7.29711 3489 ft 124 kts 150°
2026-04-15 16:00 50.51094 7.30376 3489 ft 124 kts 150°
2026-04-15 16:00 50.50377 7.31129 3494 ft 125 kts 130°
2026-04-15 16:01 50.50031 7.32378 3498 ft 126 kts 107°
2026-04-15 16:01 50.49800 7.33708 3492 ft 127 kts 105°
2026-04-15 16:01 50.49587 7.35075 3491 ft 127 kts 104°
2026-04-15 16:01 50.49381 7.36426 3489 ft 127 kts 104°
2026-04-15 16:02 50.49180 7.37781 3489 ft 127 kts 103°
2026-04-15 16:02 50.48979 7.39127 3492 ft 127 kts 103°
2026-04-15 16:02 50.48783 7.40460 3492 ft 127 kts 103°
2026-04-15 16:02 50.48582 7.41824 3489 ft 126 kts 103°
2026-04-15 16:03 50.48382 7.43168 3491 ft 127 kts 103°
2026-04-15 16:03 50.48184 7.44513 3493 ft 127 kts 103°
2026-04-15 16:03 50.47984 7.45869 3493 ft 127 kts 103°
2026-04-15 16:03 50.47783 7.47229 3492 ft 127 kts 103°
2026-04-15 16:04 50.47583 7.48568 3490 ft 124 kts 103°
2026-04-15 16:04 50.47390 7.49872 3490 ft 122 kts 104°
2026-04-15 16:04 50.47200 7.51154 3491 ft 121 kts 104°
2026-04-15 16:04 50.47009 7.52443 3492 ft 120 kts 104°
2026-04-15 16:05 50.46820 7.53713 3495 ft 120 kts 103°
2026-04-15 16:05 50.46629 7.54996 3495 ft 121 kts 103°
2026-04-15 16:05 50.46438 7.56284 3494 ft 121 kts 104°
2026-04-15 16:05 50.46246 7.57570 3493 ft 121 kts 103°
2026-04-15 16:06 50.46055 7.58853 3491 ft 121 kts 103°
2026-04-15 16:06 50.45862 7.60137 3493 ft 121 kts 103°
2026-04-15 16:06 50.45670 7.61430 3495 ft 121 kts 103°
2026-04-15 16:06 50.45479 7.62710 3495 ft 121 kts 103°
2026-04-15 16:07 50.45289 7.63983 3496 ft 120 kts 103°
2026-04-15 16:07 50.45095 7.65278 3496 ft 120 kts 104°
2026-04-15 16:07 50.44714 7.67822 3495 ft 120 kts 104°
2026-04-15 16:08 50.44521 7.69109 3494 ft 120 kts 104°
2026-04-15 16:08 50.44332 7.70374 3493 ft 120 kts 104°
2026-04-15 16:08 50.44141 7.71635 3494 ft 119 kts 104°
2026-04-15 16:08 50.43949 7.72910 3493 ft 120 kts 104°
2026-04-15 16:09 50.43758 7.74183 3494 ft 120 kts 104°
2026-04-15 16:09 50.43567 7.75444 3495 ft 119 kts 104°
2026-04-15 16:09 50.43376 7.76715 3494 ft 119 kts 104°
2026-04-15 16:09 50.43186 7.77975 3496 ft 119 kts 104°
2026-04-15 16:10 50.42993 7.79243 3497 ft 119 kts 103°
2026-04-15 16:10 50.42801 7.80518 3497 ft 120 kts 103°
2026-04-15 16:10 50.42609 7.81788 3496 ft 120 kts 104°
2026-04-15 16:10 50.42403 7.83066 3493 ft 120 kts 108°
2026-04-15 16:11 50.42114 7.84294 3497 ft 119 kts 111°
2026-04-15 16:11 50.41819 7.85496 3496 ft 118 kts 111°
2026-04-15 16:11 50.41523 7.86698 3497 ft 118 kts 111°
2026-04-15 16:11 50.41226 7.87906 3496 ft 118 kts 112°
2026-04-15 16:12 50.40926 7.89126 3497 ft 118 kts 111°
2026-04-15 16:12 50.40630 7.90329 3498 ft 118 kts 111°
2026-04-15 16:12 50.40337 7.91521 3497 ft 118 kts 111°
2026-04-15 16:12 50.40041 7.92726 3500 ft 118 kts 111°
2026-04-15 16:13 50.39743 7.93932 3500 ft 119 kts 111°
2026-04-15 16:13 50.39441 7.95153 3500 ft 119 kts 111°
2026-04-15 16:13 50.39143 7.96364 3499 ft 120 kts 111°
2026-04-15 16:13 50.38842 7.97591 3499 ft 119 kts 111°
2026-04-15 16:14 50.38547 7.98790 3499 ft 119 kts 111°
2026-04-15 16:14 50.38245 8.00014 3500 ft 119 kts 111°
2026-04-15 16:14 50.37946 8.01226 3499 ft 119 kts 111°
2026-04-15 16:14 50.37648 8.02430 3499 ft 119 kts 111°
2026-04-15 16:15 50.37348 8.03646 3498 ft 118 kts 111°
2026-04-15 16:15 50.37051 8.04848 3498 ft 118 kts 111°
2026-04-15 16:15 50.36751 8.06058 3498 ft 118 kts 111°
2026-04-15 16:15 50.36455 8.07251 3499 ft 118 kts 111°
2026-04-15 16:16 50.36158 8.08454 3498 ft 119 kts 111°
2026-04-15 16:16 50.35854 8.09679 3499 ft 119 kts 111°
2026-04-15 16:16 50.35553 8.10893 3499 ft 120 kts 111°
2026-04-15 16:16 50.35254 8.12095 3498 ft 120 kts 111°
2026-04-15 16:17 50.34952 8.13312 3499 ft 120 kts 111°
2026-04-15 16:17 50.34650 8.14526 3500 ft 119 kts 111°
2026-04-15 16:17 50.34346 8.15751 3498 ft 120 kts 111°
2026-04-15 16:17 50.34048 8.16952 3498 ft 119 kts 111°
2026-04-15 16:18 50.33743 8.18176 3497 ft 119 kts 111°
2026-04-15 16:18 50.33445 8.19373 3497 ft 119 kts 111°
2026-04-15 16:18 50.33144 8.20583 3497 ft 119 kts 111°
2026-04-15 16:18 50.32842 8.21796 3497 ft 119 kts 111°
2026-04-15 16:19 50.32541 8.23006 3496 ft 119 kts 111°
2026-04-15 16:19 50.32239 8.24217 3497 ft 119 kts 111°
2026-04-15 16:19 50.31940 8.25412 3497 ft 118 kts 111°
2026-04-15 16:19 50.31639 8.26614 3498 ft 119 kts 111°
2026-04-15 16:20 50.31336 8.27828 3497 ft 119 kts 111°
2026-04-15 16:20 50.31036 8.29028 3496 ft 119 kts 111°
2026-04-15 16:20 50.30733 8.30237 3496 ft 119 kts 110°
2026-04-15 16:20 50.30434 8.31433 3497 ft 119 kts 110°
2026-04-15 16:21 50.30130 8.32652 3499 ft 119 kts 110°
2026-04-15 16:21 50.29831 8.33847 3501 ft 118 kts 111°
2026-04-15 16:21 50.29532 8.35039 3502 ft 118 kts 111°
2026-04-15 16:21 50.29229 8.36245 3501 ft 118 kts 110°
2026-04-15 16:22 50.28930 8.37437 3496 ft 118 kts 111°
2026-04-15 16:22 50.28626 8.38645 3496 ft 118 kts 110°
2026-04-15 16:22 50.28323 8.39852 3494 ft 118 kts 110°
2026-04-15 16:22 50.28025 8.41042 3493 ft 118 kts 110°
2026-04-15 16:23 50.27721 8.42248 3499 ft 118 kts 111°
2026-04-15 16:23 50.27422 8.43436 3500 ft 119 kts 111°
2026-04-15 16:23 50.26918 8.44428 3495 ft 118 kts 138°
2026-04-15 16:23 50.26275 8.45208 3495 ft 111 kts 142°
2026-04-15 16:24 50.25680 8.45884 3489 ft 102 kts 142°
2026-04-15 16:24 50.25119 8.46526 3493 ft 99 kts 142°
2026-04-15 16:24 50.24559 8.47164 3496 ft 98 kts 141°
2026-04-15 16:24 50.24029 8.47767 3507 ft 94 kts 141°
2026-04-15 16:25 50.23497 8.48372 3508 ft 94 kts 141°
2026-04-15 16:25 50.22965 8.48974 3509 ft 94 kts 141°
2026-04-15 16:25 50.22430 8.49579 3502 ft 94 kts 141°
2026-04-15 16:25 50.21898 8.50181 3504 ft 93 kts 142°
2026-04-15 16:26 50.21367 8.50780 3509 ft 94 kts 142°
2026-04-15 16:26 50.20836 8.51381 3508 ft 96 kts 142°
2026-04-15 16:26 50.20289 8.51997 3507 ft 97 kts 142°
2026-04-15 16:26 50.19743 8.52605 3492 ft 90 kts 144°
2026-04-15 16:27 50.19233 8.53155 3257 ft 89 kts 144°
2026-04-15 16:27 50.18718 8.53723 2952 ft 96 kts 142°
2026-04-15 16:27 50.18182 8.54320 2679 ft 94 kts 143°
2026-04-15 16:27 50.17652 8.54908 2382 ft 94 kts 144°
2026-04-15 16:28 50.17119 8.55503 2095 ft 94 kts 144°
2026-04-15 16:28 50.16593 8.56090 1819 ft 93 kts 145°
2026-04-15 16:28 50.16062 8.56685 1569 ft 94 kts 144°
2026-04-15 16:28 50.15555 8.57254 1511 ft 85 kts 143°
2026-04-15 16:29 50.15091 8.57775 1511 ft 80 kts 142°
2026-04-15 16:29 50.14648 8.58273 1513 ft 78 kts 142°
2026-04-15 16:29 50.14206 8.58772 1517 ft 78 kts 142°
2026-04-15 16:29 50.13739 8.59195 1513 ft 78 kts 160°
2026-04-15 16:30 50.13232 8.59487 1521 ft 77 kts 148°
2026-04-15 16:30 50.12735 8.59830 1485 ft 81 kts 153°
2026-04-15 16:30 50.12250 8.60313 1442 ft 83 kts 143°
2026-04-15 16:30 50.11730 8.60603 1413 ft 84 kts 157°
2026-04-15 16:31 50.11189 8.60953 1380 ft 84 kts 159°
2026-04-15 16:31 50.10656 8.61324 1346 ft 84 kts 151°
2026-04-15 16:31 50.10134 8.61762 1294 ft 86 kts 144°
2026-04-15 16:31 50.09639 8.62285 1259 ft 86 kts 145°
2026-04-15 16:32 50.09122 8.62798 1185 ft 88 kts 145°
2026-04-15 16:32 50.08615 8.63308 1170 ft 84 kts 147°
2026-04-15 16:32 50.08080 8.63737 1124 ft 87 kts 152°
2026-04-15 16:32 50.07542 8.64182 1110 ft 88 kts 152°
2026-04-15 16:33 50.06988 8.64574 1109 ft 87 kts 155°
2026-04-15 16:33 50.06419 8.64768 1117 ft 81 kts 176°
2026-04-15 16:33 50.05875 8.64554 1057 ft 80 kts 204°
2026-04-15 16:33 50.05466 8.64012 1028 ft 78 kts 225°
2026-04-15 16:34 50.05146 8.63299 959 ft 81 kts 236°
2026-04-15 16:34 50.04905 8.62499 875 ft 84 kts 245°
2026-04-15 16:34 50.04698 8.61632 784 ft 84 kts 245°
2026-04-15 16:34 50.04495 8.60794 727 ft 83 kts 245°
2026-04-15 16:35 50.04291 8.59923 618 ft 88 kts 247°
2026-04-15 16:35 50.04089 8.59012 494 ft 90 kts 247°
2026-04-15 16:35 50.03881 8.58148 458 ft 83 kts 246°
2026-04-15 16:35 50.03682 8.57320 415 ft 81 kts 245°
2026-04-15 16:36 50.03487 8.56498 373 ft 79 kts 246°
2026-04-15 16:36 50.03339 8.55860 333 ft 35 kts 244°
2026-04-15 16:36 50.03225 8.55579 330 ft 25 kts 231°
2026-04-15 16:36 50.03117 8.55429 331 ft 16 kts 217°
2026-04-15 16:37 50.03071 8.55373 331 ft 0 kts 217°
2026-04-15 16:38 50.03064 8.55364 330 ft 3 kts 221°
2026-04-15 16:38 50.03034 8.55311 330 ft 9 kts 228°
2026-04-15 16:38 50.02978 8.55167 330 ft 18 kts 248°
2026-04-15 16:38 50.02932 8.54972 328 ft 19 kts 249°
2026-04-15 16:39 50.02881 8.54760 329 ft 23 kts 248°
2026-04-15 16:39 50.02820 8.54499 330 ft 28 kts 249°
2026-04-15 16:39 50.02750 8.54199 330 ft 29 kts 248°
2026-04-15 16:39 50.02683 8.53916 329 ft 26 kts 250°
2026-04-15 16:40 50.02616 8.53705 328 ft 20 kts 216°
2026-04-15 16:40 50.02519 8.53578 329 ft 16 kts 244°
2026-04-15 16:40 50.02478 8.53421 328 ft 15 kts 254°
2026-04-15 16:40 50.02439 8.53264 327 ft 15 kts 250°
2026-04-15 16:41 50.02407 8.53122 328 ft 12 kts 248°
2026-04-15 16:41 50.02373 8.52991 326 ft 13 kts 250°
2026-04-15 16:41 50.02332 8.52865 326 ft 10 kts 230°
2026-04-15 16:41 50.02313 8.52845 326 ft 10 kts 202°
2026-04-15 16:42 50.02259 8.52825 326 ft 0 kts 174°
2026-04-15 16:44 50.02212 8.52828 326 ft 14 kts 179°
2026-04-15 16:45 50.02147 8.52895 327 ft 11 kts 82°
2026-04-15 16:45 50.02152 8.53000 329 ft 8 kts 84°
2026-04-15 16:45 50.02169 8.53079 331 ft 6 kts 32°
2026-04-15 16:45 50.02206 8.53096 330 ft 5 kts 359°
2026-04-15 16:46 50.02244 8.53083 329 ft 3 kts 337°
2026-04-15 16:46 50.02256 8.53075 329 ft 0 kts 338°